Location: Chassagnes
(44.4047°N, 4.1657°E)
Time: 12:56:09
(UTC+00:00)

Milstar 3 - Pass Details

Date: 27 October 2020
Orbit: 1101 x 5144 km, 28.2° (Epoch: 25 September)

Event Time Altitude Azimuth Distance (km) Brightness Sun altitude
Rises 18:19:52 0° 243° (WSW) 4,219 7.0 -18.5°
Reaches altitude 10° 18:23:31 10° 228° (SW) 3,039 5.7 -19.2°
Maximum altitude 18:28:31 21° 180° (S) 2,216 4.3 -20.1°
Enters shadow 18:31:53 15° 143° (SE) 2,648 4.4 -20.7°
